When you browse on this site, cookies collect data to enhance your experience and personalize the content and advertising you see.
Visit our Privacy Policy to learn more. By continuing to use the site, you agree to this use of cookies and data.
  • In Hungary
  • List of Countries
  • For 7 days
  • Water Temperature
  • Weather Map
  • News
  • Weather Widgets
  • user-avatar
    Login

    Hourly Weather Klatovy

    Today, 17 February, Monday

    Time Temperature Precipitation Wind Pressure Humidity
    00:00 +9°C° 0 mm 5 mps 723 mmHg 52%
    01:00 +8°C° 0 mm 4 mps 722 mmHg 59%
    02:00 +8°C° 0 mm 5 mps 723 mmHg 62%
    03:00 +8°C° 0 mm 5 mps 723 mmHg 65%
    04:00 +8°C° 0 mm 5 mps 723 mmHg 68%
    05:00 +8°C° 0 mm 5 mps 724 mmHg 70%
    06:00 +8°C° 0 mm 5 mps 724 mmHg 73%
    07:00 +8°C° 0 mm 4 mps 724 mmHg 79%
    08:00 +9°C° 0 mm 3 mps 724 mmHg 80%
    09:00 +9°C° 0 mm 3 mps 724 mmHg 81%
    10:00 +9°C° 0 mm 3 mps 724 mmHg 82%
    11:00 +9°C° 0 mm 3 mps 725 mmHg 80%
    12:00 +10°C° 0 mm 2 mps 725 mmHg 77%
    13:00 +10°C° 0 mm 2 mps 725 mmHg 75%
    14:00 +10°C° 0.1 mm 2 mps 725 mmHg 79%
    15:00 +9°C° 0.1 mm 2 mps 724 mmHg 83%
    16:00 +10°C° 0.1 mm 1 mps 724 mmHg 87%
    17:00 +9°C° 0.7 mm 3 mps 725 mmHg 86%
    18:00 +7°C° 0.7 mm 4 mps 725 mmHg 85%
    19:00 +7°C° 0.7 mm 5 mps 726 mmHg 85%
    20:00 +6°C° 0.1 mm 5 mps 726 mmHg 85%
    21:00 +6°C° 0.1 mm 5 mps 726 mmHg 84%
    22:00 +5°C° 0.1 mm 6 mps 726 mmHg 84%
    23:00 +5°C° 0 mm 5 mps 727 mmHg 84%

    Tomorrow, 18 February, Tuesday

    Time Temperature Precipitation Wind Pressure Humidity
    00:00 +5°C° 0 mm 5 mps 727 mmHg 84%
    01:00 +3°C° 0 mm 5 mps 728 mmHg 84%
    02:00 +3°C° 0.1 mm 5 mps 728 mmHg 84%
    03:00 +3°C° 0.1 mm 6 mps 728 mmHg 83%
    04:00 +3°C° 0.1 mm 6 mps 728 mmHg 83%
    05:00 +3°C° 0.1 mm 6 mps 729 mmHg 83%
    06:00 +2°C° 0.1 mm 6 mps 729 mmHg 84%
    07:00 +2°C° 0.1 mm 6 mps 729 mmHg 85%
    08:00 +2°C° 0.1 mm 7 mps 730 mmHg 85%
    09:00 +2°C° 0.1 mm 7 mps 730 mmHg 85%
    10:00 +2°C° 0.1 mm 7 mps 730 mmHg 86%
    11:00 +2°C° 0.1 mm 7 mps 731 mmHg 80%
    12:00 +3°C° 0.1 mm 7 mps 731 mmHg 75%
    13:00 +2°C° 0.1 mm 8 mps 731 mmHg 69%
    14:00 +3°C° 0.1 mm 7 mps 731 mmHg 68%
    15:00 +3°C° 0.1 mm 7 mps 730 mmHg 67%
    16:00 +3°C° 0.1 mm 6 mps 730 mmHg 66%
    17:00 +2°C° 0 mm 5 mps 730 mmHg 71%
    18:00 +1°C° 0 mm 4 mps 730 mmHg 76%
    19:00 0°C° 0 mm 4 mps 731 mmHg 81%
    20:00 0°C° 0 mm 4 mps 730 mmHg 82%
    21:00 0°C° 0 mm 4 mps 730 mmHg 83%
    22:00 0°C° 0 mm 4 mps 730 mmHg 84%
    23:00 0°C° 0 mm 4 mps 730 mmHg 84%

    Day after tomorrow, 19 February, Wednesday

    Time Temperature Precipitation Wind Pressure Humidity
    00:00 0°C° 0 mm 4 mps 729 mmHg 84%
    01:00 0°C° 0 mm 4 mps 729 mmHg 84%
    02:00 -1°C° 0 mm 4 mps 728 mmHg 84%
    03:00 -1°C° 0 mm 4 mps 727 mmHg 84%
    04:00 -1°C° 0 mm 4 mps 727 mmHg 84%
    05:00 -1°C° 0 mm 5 mps 726 mmHg 84%
    06:00 -1°C° 0 mm 6 mps 726 mmHg 85%
    07:00 -1°C° 0 mm 6 mps 725 mmHg 86%
    08:00 -1°C° 0.4 mm 7 mps 725 mmHg 87%
    09:00 -1°C° 0.4 mm 7 mps 724 mmHg 88%
    10:00 0°C° 0.4 mm 8 mps 724 mmHg 89%
    11:00 0°C° 0.6 mm 8 mps 724 mmHg 87%
    12:00 0°C° 0.6 mm 8 mps 724 mmHg 86%
    13:00 0°C° 0.6 mm 7 mps 724 mmHg 85%
    14:00 0°C° 0.1 mm 7 mps 724 mmHg 79%
    15:00 0°C° 0.1 mm 7 mps 724 mmHg 74%
    16:00 +1°C° 0.1 mm 6 mps 725 mmHg 69%
    17:00 -1°C° 0 mm 6 mps 725 mmHg 73%
    18:00 0°C° 0 mm 5 mps 726 mmHg 77%
    19:00 -1°C° 0 mm 4 mps 727 mmHg 81%
    20:00 -2°C° 0 mm 4 mps 727 mmHg 82%
    21:00 -2°C° 0 mm 4 mps 728 mmHg 83%
    22:00 -2°C° 0 mm 4 mps 728 mmHg 84%
    23:00 -1°C° 0 mm 3 mps 728 mmHg 85%

    20 February, Thursday

    Time Temperature Precipitation Wind Pressure Humidity
    00:00 -2°C° 0 mm 3 mps 729 mmHg 86%
    01:00 -2°C° 0 mm 3 mps 729 mmHg 87%
    02:00 -2°C° 0 mm 3 mps 729 mmHg 88%
    03:00 -2°C° 0 mm 3 mps 728 mmHg 89%
    04:00 -2°C° 0 mm 3 mps 728 mmHg 90%
    05:00 -2°C° 0 mm 3 mps 728 mmHg 90%
    06:00 -2°C° 0 mm 3 mps 728 mmHg 90%
    07:00 -2°C° 0 mm 2 mps 728 mmHg 90%
    08:00 -1°C° 0 mm 3 mps 728 mmHg 86%
    09:00 0°C° 0 mm 3 mps 728 mmHg 82%
    10:00 0°C° 0 mm 4 mps 728 mmHg 78%
    11:00 +2°C° 0 mm 3 mps 728 mmHg 77%
    12:00 +3°C° 0 mm 3 mps 728 mmHg 76%
    13:00 +3°C° 0 mm 3 mps 727 mmHg 74%
    14:00 +5°C° 0 mm 2 mps 727 mmHg 75%
    15:00 +5°C° 0 mm 2 mps 727 mmHg 75%
    16:00 +6°C° 0 mm 1 mps 726 mmHg 76%
    17:00 +4°C° 0 mm 2 mps 726 mmHg 80%
    18:00 +3°C° 0 mm 2 mps 726 mmHg 85%
    19:00 +1°C° 0 mm 2 mps 726 mmHg 89%
    20:00 +1°C° 0 mm 2 mps 726 mmHg 89%
    21:00 +1°C° 0 mm 2 mps 726 mmHg 89%
    22:00 +1°C° 0 mm 2 mps 726 mmHg 88%
    23:00 +1°C° 0 mm 2 mps 726 mmHg 87%

    21 February, Friday

    Time Temperature Precipitation Wind Pressure Humidity
    00:00 +1°C° 0 mm 2 mps 726 mmHg 86%
    01:00 +1°C° 0 mm 2 mps 726 mmHg 86%
    02:00 +1°C° 0 mm 3 mps 726 mmHg 85%
    03:00 0°C° 0 mm 4 mps 726 mmHg 85%
    04:00 +1°C° 0 mm 5 mps 726 mmHg 85%
    05:00 +1°C° 0.3 mm 5 mps 726 mmHg 87%
    06:00 +2°C° 0.3 mm 6 mps 727 mmHg 89%
    07:00 +2°C° 0.3 mm 7 mps 728 mmHg 91%
    14:00 +3°C° 0 mm 6 mps 733 mmHg 66%
    15:00 +2°C° 0 mm 5 mps 733 mmHg 67%
    16:00 +2°C° 0 mm 5 mps 733 mmHg 67%
    17:00 +1°C° 0 mm 4 mps 733 mmHg 72%
    18:00 +1°C° 0 mm 3 mps 733 mmHg 77%
    19:00 0°C° 0 mm 3 mps 734 mmHg 81%
    20:00 0°C° 0 mm 3 mps 734 mmHg 82%
    21:00 -1°C° 0 mm 3 mps 734 mmHg 82%
    22:00 -1°C° 0 mm 3 mps 734 mmHg 83%
    23:00 -1°C° 0 mm 3 mps 733 mmHg 82%

    22 February, Saturday

    Time Temperature Precipitation Wind Pressure Humidity
    00:00 -1°C° 0 mm 3 mps 733 mmHg 82%
    01:00 -1°C° 0 mm 3 mps 733 mmHg 81%
    02:00 0°C° 0 mm 3 mps 733 mmHg 80%
    03:00 -1°C° 0 mm 4 mps 733 mmHg 79%
    04:00 -1°C° 0 mm 4 mps 733 mmHg 78%
    05:00 -1°C° 0 mm 4 mps 732 mmHg 77%
    06:00 -1°C° 0 mm 5 mps 732 mmHg 76%
    07:00 -1°C° 0 mm 5 mps 732 mmHg 75%
    08:00 -1°C° 0 mm 6 mps 732 mmHg 72%
    09:00 +1°C° 0 mm 6 mps 732 mmHg 68%
    10:00 +2°C° 0 mm 7 mps 732 mmHg 65%
    11:00 +3°C° 0 mm 7 mps 732 mmHg 63%
    12:00 +4°C° 0 mm 7 mps 732 mmHg 61%
    13:00 +4°C° 0 mm 7 mps 732 mmHg 58%
    14:00 +4°C° 0 mm 7 mps 731 mmHg 60%
    15:00 +4°C° 0 mm 7 mps 731 mmHg 62%
    16:00 +4°C° 0 mm 6 mps 731 mmHg 64%
    17:00 +4°C° 0 mm 6 mps 731 mmHg 66%
    18:00 +4°C° 0 mm 6 mps 731 mmHg 69%
    19:00 +4°C° 0 mm 6 mps 732 mmHg 71%
    20:00 +4°C° 0 mm 6 mps 732 mmHg 75%
    21:00 +4°C° 0 mm 6 mps 732 mmHg 79%
    22:00 +4°C° 0 mm 6 mps 732 mmHg 83%
    23:00 +4°C° 0 mm 6 mps 732 mmHg 85%
    Show more